JAL237 RJTT-RJOB

Flight info

Callsign JAL237
Flight time 1h 3m
Altitude 34000
Route NINOX4 NINOX Y28 IPLES Y207 ARASI Y20 WAKIT Y205 OYE DCT
Aircraft B738/M-VGDW/C

Departure

Time 2026-04-26 05:55
Airport Tokyo Haneda International Airport (RJTT)

Arrival

Time 2026-04-26 06:58
Airport Okayama Momotaro Airport (RJOB)
Time Latitude Longitude Altitude Speed Heading
2026-04-26 05:22 35.54533 139.78469 28 ft 0 kts 77°
2026-04-26 05:23 35.54533 139.78470 26 ft 0 kts 77°
2026-04-26 05:38 35.54530 139.78451 24 ft 4 kts 76°
2026-04-26 05:38 35.54523 139.78419 25 ft 4 kts 75°
2026-04-26 05:39 35.54517 139.78390 22 ft 1 kts 77°
2026-04-26 05:39 35.54515 139.78361 24 ft 4 kts 105°
2026-04-26 05:39 35.54527 139.78335 26 ft 4 kts 142°
2026-04-26 05:39 35.54548 139.78319 28 ft 4 kts 150°
2026-04-26 05:40 35.54561 139.78309 28 ft 1 kts 149°
2026-04-26 05:43 35.54533 139.78329 28 ft 12 kts 149°
2026-04-26 05:43 35.54440 139.78396 25 ft 17 kts 150°
2026-04-26 05:44 35.54347 139.78461 23 ft 13 kts 150°
2026-04-26 05:44 35.54282 139.78496 23 ft 10 kts 182°
2026-04-26 05:44 35.54225 139.78445 23 ft 10 kts 204°
2026-04-26 05:44 35.54159 139.78467 21 ft 11 kts 149°
2026-04-26 05:45 35.54089 139.78517 21 ft 12 kts 149°
2026-04-26 05:45 35.54018 139.78569 21 ft 12 kts 149°
2026-04-26 05:45 35.53966 139.78606 20 ft 2 kts 150°
2026-04-26 05:45 35.53965 139.78606 20 ft 0 kts 150°
2026-04-26 05:46 35.53957 139.78612 20 ft 6 kts 151°
2026-04-26 05:47 35.53884 139.78663 20 ft 18 kts 150°
2026-04-26 05:47 35.53765 139.78748 21 ft 19 kts 145°
2026-04-26 05:47 35.53654 139.78861 16 ft 23 kts 139°
2026-04-26 05:47 35.53522 139.79000 17 ft 25 kts 139°
2026-04-26 05:48 35.53409 139.79118 17 ft 15 kts 137°
2026-04-26 05:48 35.53371 139.79227 19 ft 14 kts 92°
2026-04-26 05:48 35.53413 139.79342 20 ft 18 kts 59°
2026-04-26 05:48 35.53488 139.79498 22 ft 23 kts 60°
2026-04-26 05:49 35.53578 139.79688 19 ft 28 kts 59°
2026-04-26 05:49 35.53710 139.79975 22 ft 12 kts 74°
2026-04-26 05:49 35.53668 139.80053 20 ft 12 kts 150°
2026-04-26 05:50 35.53577 139.80117 28 ft 19 kts 150°
2026-04-26 05:50 35.53444 139.80211 30 ft 25 kts 150°
2026-04-26 05:50 35.53295 139.80316 37 ft 24 kts 150°
2026-04-26 05:50 35.53154 139.80417 42 ft 23 kts 150°
2026-04-26 05:51 35.53040 139.80498 46 ft 12 kts 150°
2026-04-26 05:51 35.52970 139.80523 48 ft 11 kts 192°
2026-04-26 05:51 35.52894 139.80453 47 ft 18 kts 223°
2026-04-26 05:51 35.52787 139.80332 48 ft 22 kts 222°
2026-04-26 05:52 35.52680 139.80212 48 ft 19 kts 222°
2026-04-26 05:52 35.52602 139.80139 51 ft 11 kts 191°
2026-04-26 05:52 35.52542 139.80183 50 ft 10 kts 133°
2026-04-26 05:52 35.52493 139.80249 46 ft 11 kts 132°
2026-04-26 05:53 35.52442 139.80317 51 ft 10 kts 130°
2026-04-26 05:53 35.52427 139.80373 50 ft 4 kts 74°
2026-04-26 05:53 35.52443 139.80394 50 ft 1 kts 42°
2026-04-26 05:53 35.52444 139.80395 50 ft 0 kts 42°
2026-04-26 05:54 35.52448 139.80400 50 ft 6 kts 42°
2026-04-26 05:54 35.52648 139.80625 51 ft 77 kts 42°
2026-04-26 05:54 35.53226 139.81273 49 ft 144 kts 42°
2026-04-26 05:54 35.54031 139.82227 434 ft 168 kts 45°
2026-04-26 05:55 35.54897 139.83231 1169 ft 179 kts 45°
2026-04-26 05:55 35.55842 139.84284 1938 ft 181 kts 47°
2026-04-26 05:55 35.56460 139.85630 2381 ft 191 kts 84°
2026-04-26 05:55 35.56281 139.87283 2690 ft 202 kts 112°
2026-04-26 05:56 35.55781 139.88925 2940 ft 216 kts 111°
2026-04-26 05:56 35.55280 139.90732 3171 ft 233 kts 110°
2026-04-26 05:56 35.54715 139.92708 3430 ft 252 kts 118°
2026-04-26 05:56 35.53559 139.94331 3987 ft 255 kts 148°
2026-04-26 05:57 35.51902 139.94987 4644 ft 256 kts 178°
2026-04-26 05:57 35.50114 139.94777 5271 ft 260 kts 190°
2026-04-26 05:57 35.48335 139.94350 5890 ft 263 kts 193°
2026-04-26 05:57 35.46656 139.93460 6507 ft 267 kts 219°
2026-04-26 05:58 35.45468 139.91714 7158 ft 267 kts 243°
2026-04-26 05:58 35.44910 139.89568 7846 ft 268 kts 259°
2026-04-26 05:58 35.44605 139.87298 8572 ft 269 kts 260°
2026-04-26 05:58 35.44327 139.85043 9332 ft 270 kts 260°
2026-04-26 05:59 35.44042 139.82781 10100 ft 270 kts 260°
2026-04-26 05:59 35.43736 139.80442 10480 ft 286 kts 259°
2026-04-26 05:59 35.43403 139.77968 10638 ft 307 kts 259°
2026-04-26 05:59 35.43037 139.75286 10791 ft 327 kts 260°
2026-04-26 06:00 35.42811 139.72450 10912 ft 348 kts 272°
2026-04-26 06:00 35.43335 139.69477 11253 ft 361 kts 286°
2026-04-26 06:00 35.44109 139.66582 11798 ft 365 kts 287°
2026-04-26 06:00 35.44916 139.63615 12388 ft 368 kts 287°
2026-04-26 06:01 35.45722 139.60617 13002 ft 370 kts 286°
2026-04-26 06:01 35.46471 139.57781 13601 ft 373 kts 286°
2026-04-26 06:01 35.47273 139.54710 14176 ft 376 kts 286°
2026-04-26 06:01 35.48067 139.51651 14756 ft 378 kts 285°
2026-04-26 06:02 35.48641 139.48509 15359 ft 377 kts 274°
2026-04-26 06:02 35.48782 139.45325 15990 ft 377 kts 270°
2026-04-26 06:02 35.48870 139.42111 16612 ft 379 kts 270°
2026-04-26 06:02 35.48960 139.38857 17205 ft 381 kts 270°
2026-04-26 06:03 35.49063 139.35614 17790 ft 383 kts 270°
2026-04-26 06:03 35.49181 139.32332 18348 ft 386 kts 270°
2026-04-26 06:03 35.49307 139.29061 18887 ft 386 kts 270°
2026-04-26 06:03 35.49436 139.25792 19451 ft 386 kts 270°
2026-04-26 06:04 35.49567 139.22510 19939 ft 388 kts 270°
2026-04-26 06:04 35.49697 139.19178 20522 ft 388 kts 270°
2026-04-26 06:04 35.49806 139.15891 21095 ft 388 kts 269°
2026-04-26 06:04 35.49742 139.12612 21615 ft 387 kts 266°
2026-04-26 06:05 35.49573 139.09303 22084 ft 388 kts 265°
2026-04-26 06:05 35.49373 139.05978 22573 ft 389 kts 265°
2026-04-26 06:05 35.49180 139.02700 23048 ft 389 kts 265°
2026-04-26 06:05 35.48997 138.99388 23556 ft 389 kts 265°
2026-04-26 06:06 35.48823 138.96096 23875 ft 391 kts 265°
2026-04-26 06:06 35.48655 138.92748 24154 ft 393 kts 265°
2026-04-26 06:06 35.48492 138.89419 24614 ft 391 kts 264°
2026-04-26 06:06 35.48329 138.86089 25130 ft 388 kts 265°
2026-04-26 06:07 35.48163 138.82748 25478 ft 390 kts 264°
2026-04-26 06:07 35.47996 138.79443 25769 ft 392 kts 264°
2026-04-26 06:07 35.47828 138.76135 26073 ft 393 kts 264°
2026-04-26 06:07 35.47658 138.72777 26415 ft 392 kts 264°
2026-04-26 06:08 35.47490 138.69465 26804 ft 391 kts 264°
2026-04-26 06:08 35.47321 138.66153 27304 ft 386 kts 263°
2026-04-26 06:08 35.47152 138.62862 27758 ft 384 kts 263°
2026-04-26 06:08 35.46983 138.59601 27918 ft 389 kts 263°
2026-04-26 06:09 35.46810 138.56284 28229 ft 388 kts 263°
2026-04-26 06:09 35.46639 138.52979 28855 ft 381 kts 263°
2026-04-26 06:09 35.46476 138.49799 29621 ft 373 kts 262°
2026-04-26 06:09 35.46310 138.46642 30105 ft 370 kts 262°
2026-04-26 06:10 35.46142 138.43511 30407 ft 370 kts 262°
2026-04-26 06:10 35.45973 138.40382 30665 ft 370 kts 262°
2026-04-26 06:10 35.45807 138.37219 31060 ft 367 kts 261°
2026-04-26 06:10 35.45644 138.34135 31463 ft 365 kts 261°
2026-04-26 06:11 35.45479 138.31032 31896 ft 360 kts 261°
2026-04-26 06:11 35.45317 138.27977 32076 ft 362 kts 261°
2026-04-26 06:11 35.45140 138.24875 32309 ft 362 kts 260°
2026-04-26 06:11 35.44970 138.21820 32617 ft 362 kts 260°
2026-04-26 06:12 35.44802 138.18759 32796 ft 362 kts 260°
2026-04-26 06:12 35.44631 138.15667 33260 ft 358 kts 259°
2026-04-26 06:12 35.44458 138.12650 33671 ft 354 kts 259°
2026-04-26 06:12 35.44282 138.09657 33895 ft 355 kts 259°
2026-04-26 06:13 35.44102 138.06629 34128 ft 353 kts 259°
2026-04-26 06:13 35.43745 138.00612 34099 ft 357 kts 259°
2026-04-26 06:14 35.43360 137.94563 34091 ft 353 kts 258°
2026-04-26 06:14 35.43012 137.88608 34097 ft 353 kts 259°
2026-04-26 06:15 35.42663 137.82610 34084 ft 353 kts 259°
2026-04-26 06:15 35.42290 137.76610 34095 ft 353 kts 258°
2026-04-26 06:16 35.41853 137.70617 34090 ft 353 kts 258°
2026-04-26 06:16 35.41408 137.64603 34078 ft 355 kts 258°
2026-04-26 06:17 35.40969 137.58600 34088 ft 356 kts 258°
2026-04-26 06:17 35.40410 137.52620 34081 ft 352 kts 255°
2026-04-26 06:18 35.39687 137.46689 34087 ft 354 kts 255°
2026-04-26 06:18 35.38956 137.40714 34086 ft 355 kts 255°
2026-04-26 06:19 35.38236 137.34738 34082 ft 356 kts 255°
2026-04-26 06:19 35.37517 137.28738 34071 ft 357 kts 255°
2026-04-26 06:20 35.36791 137.22716 34069 ft 358 kts 255°
2026-04-26 06:20 35.36061 137.16680 34066 ft 358 kts 255°
2026-04-26 06:21 35.35335 137.10694 34063 ft 358 kts 255°
2026-04-26 06:21 35.34607 137.04686 34082 ft 357 kts 255°
2026-04-26 06:22 35.33879 136.98682 34063 ft 356 kts 255°
2026-04-26 06:22 35.33143 136.92671 34066 ft 356 kts 255°
2026-04-26 06:23 35.32412 136.86710 34070 ft 355 kts 255°
2026-04-26 06:23 35.31674 136.80715 34069 ft 355 kts 254°
2026-04-26 06:24 35.30937 136.74751 34069 ft 355 kts 254°
2026-04-26 06:24 35.30197 136.68785 34071 ft 355 kts 254°
2026-04-26 06:25 35.29454 136.62841 34067 ft 355 kts 254°
2026-04-26 06:25 35.28701 136.56867 34065 ft 355 kts 254°
2026-04-26 06:26 35.27951 136.50924 34077 ft 352 kts 254°
2026-04-26 06:26 35.27200 136.45005 34047 ft 354 kts 254°
2026-04-26 06:27 35.26458 136.39035 34064 ft 353 kts 254°
2026-04-26 06:27 35.25690 136.33106 34065 ft 356 kts 254°
2026-04-26 06:28 35.24954 136.27120 34063 ft 360 kts 254°
2026-04-26 06:28 35.24210 136.21029 34057 ft 361 kts 254°
2026-04-26 06:29 35.23429 136.15009 34047 ft 361 kts 253°
2026-04-26 06:29 35.22510 136.08961 34045 ft 360 kts 252°
2026-04-26 06:30 35.21610 136.02946 34045 ft 359 kts 253°
2026-04-26 06:30 35.20735 135.96984 34038 ft 358 kts 253°
2026-04-26 06:31 35.19859 135.91015 34026 ft 357 kts 252°
2026-04-26 06:31 35.18979 135.85042 34026 ft 355 kts 252°
2026-04-26 06:32 35.18101 135.79159 34033 ft 354 kts 252°
2026-04-26 06:32 35.17121 135.73243 34020 ft 354 kts 251°
2026-04-26 06:33 35.16119 135.67396 34036 ft 354 kts 251°
2026-04-26 06:33 35.15111 135.61503 34023 ft 354 kts 251°
2026-04-26 06:34 35.14108 135.55606 34012 ft 355 kts 251°
2026-04-26 06:34 35.13611 135.52684 33817 ft 359 kts 251°
2026-04-26 06:34 35.13093 135.49662 33255 ft 363 kts 251°
2026-04-26 06:34 35.12575 135.46623 32625 ft 360 kts 252°
2026-04-26 06:35 35.12068 135.43651 31928 ft 360 kts 252°
2026-04-26 06:35 35.11555 135.40649 31207 ft 361 kts 253°
2026-04-26 06:35 35.11045 135.37670 30481 ft 362 kts 253°
2026-04-26 06:35 35.10525 135.34644 29679 ft 363 kts 253°
2026-04-26 06:36 35.10007 135.31626 28981 ft 361 kts 254°
2026-04-26 06:36 35.09501 135.28686 28235 ft 358 kts 254°
2026-04-26 06:36 35.09003 135.25769 27775 ft 354 kts 254°
2026-04-26 06:36 35.08486 135.22757 27239 ft 366 kts 255°
2026-04-26 06:37 35.07954 135.19672 26643 ft 383 kts 255°
2026-04-26 06:37 35.07408 135.16486 26038 ft 381 kts 255°
2026-04-26 06:37 35.06869 135.13335 25462 ft 376 kts 255°
2026-04-26 06:37 35.06334 135.10214 24915 ft 371 kts 256°
2026-04-26 06:38 35.05815 135.07180 24387 ft 368 kts 256°
2026-04-26 06:38 35.05290 135.04124 23822 ft 367 kts 257°
2026-04-26 06:38 35.04768 135.01080 23244 ft 366 kts 256°
2026-04-26 06:38 35.04244 134.98047 22635 ft 365 kts 256°
2026-04-26 06:39 35.03719 134.95016 22092 ft 374 kts 256°
2026-04-26 06:39 35.03131 134.91843 21529 ft 385 kts 253°
2026-04-26 06:39 35.02367 134.88757 21013 ft 380 kts 251°
2026-04-26 06:39 35.01579 134.85720 20453 ft 376 kts 251°
2026-04-26 06:40 35.00783 134.82669 19887 ft 372 kts 251°
2026-04-26 06:40 35.00013 134.79699 19350 ft 370 kts 251°
2026-04-26 06:40 34.99241 134.76704 18815 ft 368 kts 251°
2026-04-26 06:40 34.98483 134.73750 18259 ft 366 kts 251°
2026-04-26 06:41 34.97728 134.70807 17676 ft 365 kts 251°
2026-04-26 06:41 34.96965 134.67837 17102 ft 363 kts 251°
2026-04-26 06:41 34.96225 134.64939 16568 ft 360 kts 251°
2026-04-26 06:41 34.95483 134.62008 16036 ft 359 kts 251°
2026-04-26 06:42 34.94753 134.59121 15527 ft 358 kts 251°
2026-04-26 06:42 34.94021 134.56237 15037 ft 360 kts 251°
2026-04-26 06:42 34.93268 134.53281 14526 ft 367 kts 250°
2026-04-26 06:42 34.92505 134.50320 14277 ft 368 kts 250°
2026-04-26 06:43 34.91738 134.47372 13793 ft 365 kts 250°
2026-04-26 06:43 34.90969 134.44415 13234 ft 361 kts 250°
2026-04-26 06:43 34.90221 134.41539 12712 ft 358 kts 250°
2026-04-26 06:43 34.89468 134.38643 12197 ft 355 kts 250°
2026-04-26 06:44 34.88728 134.35802 11684 ft 353 kts 250°
2026-04-26 06:44 34.87986 134.32955 11172 ft 350 kts 250°
2026-04-26 06:44 34.87263 134.30180 11033 ft 339 kts 250°
2026-04-26 06:44 34.86568 134.27518 10868 ft 328 kts 250°
2026-04-26 06:45 34.85891 134.24905 10709 ft 318 kts 250°
2026-04-26 06:45 34.85247 134.22370 10546 ft 308 kts 250°
2026-04-26 06:45 34.84803 134.19882 10404 ft 303 kts 266°
2026-04-26 06:45 34.85175 134.17372 10288 ft 300 kts 287°
2026-04-26 06:46 34.85966 134.15072 10211 ft 291 kts 291°
2026-04-26 06:46 34.86798 134.12866 10158 ft 283 kts 291°
2026-04-26 06:46 34.87536 134.10655 10020 ft 279 kts 278°
2026-04-26 06:46 34.87554 134.08357 9811 ft 271 kts 257°
2026-04-26 06:47 34.87165 134.06143 9564 ft 268 kts 253°
2026-04-26 06:47 34.86723 134.03937 9287 ft 266 kts 253°
2026-04-26 06:47 34.86206 134.01797 9013 ft 264 kts 240°
2026-04-26 06:47 34.85051 134.00085 8611 ft 263 kts 213°
2026-04-26 06:48 34.83401 133.99208 8242 ft 263 kts 194°
2026-04-26 06:48 34.81606 133.98684 7842 ft 265 kts 192°
2026-04-26 06:48 34.79807 133.98208 7455 ft 268 kts 192°
2026-04-26 06:48 34.78021 133.97610 7056 ft 270 kts 203°
2026-04-26 06:49 34.76464 133.96332 6710 ft 273 kts 229°
2026-04-26 06:49 34.75725 133.94245 6480 ft 276 kts 263°
2026-04-26 06:49 34.75956 133.91954 6236 ft 268 kts 279°
2026-04-26 06:49 34.76110 133.89758 5983 ft 262 kts 264°
2026-04-26 06:50 34.75857 133.87562 5775 ft 259 kts 255°
2026-04-26 06:50 34.75427 133.85477 5785 ft 253 kts 251°
2026-04-26 06:50 34.74943 133.83405 5786 ft 256 kts 254°
2026-04-26 06:50 34.74605 133.81283 5792 ft 256 kts 258°
2026-04-26 06:51 34.74326 133.79163 5622 ft 248 kts 258°
2026-04-26 06:51 34.73798 133.75221 5405 ft 227 kts 258°
2026-04-26 06:51 34.73543 133.73400 5337 ft 213 kts 257°
2026-04-26 06:52 34.73293 133.71663 5242 ft 206 kts 257°
2026-04-26 06:52 34.73047 133.69955 5088 ft 209 kts 257°
2026-04-26 06:52 34.72795 133.68216 4874 ft 205 kts 257°
2026-04-26 06:52 34.72441 133.66595 4639 ft 197 kts 239°
2026-04-26 06:53 34.71526 133.65433 4460 ft 189 kts 207°
2026-04-26 06:53 34.70300 133.65012 4256 ft 183 kts 179°
2026-04-26 06:53 34.69103 133.65323 4080 ft 176 kts 153°
2026-04-26 06:53 34.68158 133.66267 3899 ft 178 kts 127°
2026-04-26 06:54 34.67685 133.67657 3713 ft 180 kts 100°
2026-04-26 06:54 34.67757 133.69155 3512 ft 181 kts 77°
2026-04-26 06:54 34.68283 133.70543 3311 ft 180 kts 63°
2026-04-26 06:54 34.68919 133.71836 3104 ft 180 kts 62°
2026-04-26 06:55 34.69581 133.73127 2872 ft 177 kts 61°
2026-04-26 06:55 34.70199 133.74359 2647 ft 168 kts 62°
2026-04-26 06:55 34.70776 133.75524 2428 ft 154 kts 64°
2026-04-26 06:55 34.71294 133.76581 2294 ft 146 kts 63°
2026-04-26 06:56 34.71818 133.77652 2050 ft 145 kts 62°
2026-04-26 06:56 34.72321 133.78675 1853 ft 139 kts 61°
2026-04-26 06:56 34.72816 133.79685 1691 ft 140 kts 62°
2026-04-26 06:56 34.73307 133.80687 1495 ft 138 kts 61°
2026-04-26 06:57 34.73798 133.81688 1304 ft 137 kts 61°
2026-04-26 06:57 34.74279 133.82691 1153 ft 141 kts 61°
2026-04-26 06:57 34.74805 133.83744 938 ft 147 kts 60°
2026-04-26 06:57 34.75310 133.84770 817 ft 131 kts 60°
2026-04-26 06:58 34.75687 133.85533 814 ft 75 kts 59°
2026-04-26 06:58 34.75848 133.85862 812 ft 26 kts 59°
2026-04-26 06:58 34.75909 133.85975 815 ft 13 kts 43°
2026-04-26 06:58 34.75991 133.85970 814 ft 13 kts 331°
2026-04-26 06:59 34.76044 133.85897 813 ft 12 kts 278°
2026-04-26 06:59 34.76015 133.85807 813 ft 12 kts 239°
2026-04-26 06:59 34.75975 133.85725 813 ft 11 kts 239°
2026-04-26 06:59 34.75946 133.85667 813 ft 13 kts 239°
2026-04-26 07:00 34.75884 133.85542 813 ft 11 kts 239°
2026-04-26 07:00 34.75867 133.85507 813 ft 6 kts 243°
2026-04-26 07:00 34.75879 133.85462 813 ft 7 kts 318°
2026-04-26 07:00 34.75935 133.85421 813 ft 11 kts 329°
2026-04-26 07:01 34.75973 133.85394 813 ft 3 kts 330°
2026-04-26 07:01 34.75983 133.85387 813 ft 0 kts 330°